Total_Precipitation_Accumulation
0.18 0.10 0.12 0.10 0.09 0.09 0.08 0.10 0.11 0.13 0.11 0.10 0.10 0.09 0.09 0.08 0.08 0.06 0.06 0.07 0.10 0.15 0.20 0.23 0.25 0.28 0.31 0.24 0.16 0.12 0.12 0.12 0.14 0.16 0.19 0.23 0.27 0.33 0.37 0.34 0.39 0.38 0.30
0.17 0.10 0.12 0.11 0.11 0.11 0.09 0.10 0.11 0.12 0.10 0.09 0.09 0.08 0.08 0.08 0.09 0.09 0.08 0.09 0.12 0.15 0.15 0.17 0.20 0.22 0.20 0.15 0.11 0.10 0.11 0.14 0.23 0.35 0.44 0.46 0.46 0.48 0.56 0.58 0.60 0.56 0.33
0.21 0.15 0.12 0.12 0.11 0.10 0.09 0.11 0.12 0.13 0.12 0.11 0.10 0.09 0.09 0.09 0.09 0.09 0.09 0.10 0.15 0.17 0.16 0.15 0.14 0.14 0.12 0.10 0.10 0.12 0.17 0.23 0.42 0.64 0.98 1.17 0.93 0.80 0.74 0.69 0.62 0.48 0.42
0.24 0.21 0.16 0.14 0.12 0.10 0.09 0.11 0.13 0.13 0.12 0.11 0.10 0.09 0.09 0.09 0.09 0.10 0.12 0.13 0.18 0.21 0.20 0.16 0.13 0.11 0.09 0.09 0.10 0.15 0.22 0.32 0.57 0.89 1.56 1.59 1.52 1.38 0.91 0.68 0.57 0.53 0.57
0.21 0.20 0.20 0.16 0.13 0.12 0.12 0.13 0.15 0.15 0.12 0.12 0.11 0.12 0.12 0.11 0.11 0.13 0.18 0.21 0.23 0.23 0.24 0.22 0.17 0.13 0.11 0.10 0.11 0.17 0.25 0.38 0.73 1.10 1.59 2.00 2.27 1.78 1.18 0.86 0.68 0.63 0.69
0.21 0.19 0.19 0.18 0.18 0.19 0.18 0.18 0.19 0.18 0.16 0.16 0.15 0.15 0.14 0.14 0.15 0.18 0.27 0.32 0.31 0.28 0.31 0.30 0.25 0.19 0.14 0.12 0.13 0.20 0.31 0.49 0.71 1.05 1.59 2.27 2.17 1.72 1.34 1.09 0.88 0.80 0.81
0.25 0.25 0.21 0.23 0.25 0.24 0.24 0.22 0.23 0.22 0.24 0.25 0.24 0.21 0.20 0.20 0.21 0.26 0.35 0.37 0.36 0.35 0.35 0.31 0.24 0.16 0.14 0.15 0.16 0.22 0.36 0.54 0.71 1.23 1.72 2.10 1.93 1.56 1.40 1.22 1.12 1.03 0.93
0.28 0.24 0.23 0.26 0.29 0.30 0.30 0.30 0.30 0.30 0.29 0.29 0.28 0.28 0.25 0.24 0.27 0.32 0.37 0.38 0.38 0.35 0.30 0.26 0.22 0.19 0.19 0.20 0.21 0.27 0.38 0.45 0.55 1.07 1.55 1.72 1.45 1.41 1.47 1.30 1.18 1.07 0.98
0.38 0.37 0.37 0.39 0.40 0.43 0.45 0.42 0.39 0.37 0.35 0.32 0.30 0.27 0.24 0.26 0.30 0.34 0.40 0.44 0.42 0.34 0.28 0.27 0.25 0.22 0.22 0.22 0.22 0.26 0.33 0.46 0.54 0.87 1.42 1.73 1.27 1.36 1.53 1.40 1.21 1.11 1.02
0.73 0.73 0.74 0.72 0.65 0.55 0.48 0.46 0.47 0.46 0.42 0.37 0.31 0.27 0.29 0.33 0.39 0.46 0.43 0.45 0.42 0.37 0.34 0.32 0.28 0.24 0.24 0.23 0.24 0.28 0.34 0.38 0.44 0.81 1.32 1.43 1.33 1.59 1.75 1.56 1.31 1.21 1.06
1.32 1.27 1.12 1.00 0.86 0.86 0.77 0.58 0.59 0.57 0.53 0.47 0.44 0.38 0.42 0.54 0.69 0.75 0.62 0.63 0.57 0.51 0.48 0.47 0.42 0.38 0.34 0.31 0.33 0.37 0.39 0.38 0.60 0.95 1.53 1.62 1.76 1.88 1.98 1.81 1.52 1.37 1.26
1.77 1.62 1.33 1.31 1.24 1.14 0.99 0.92 0.90 0.78 0.74 0.67 0.77 0.68 0.77 1.08 1.19 1.04 1.01 0.87 0.86 0.82 0.71 0.70 0.66 0.54 0.47 0.48 0.57 0.56 0.43 0.49 0.68 1.00 1.33 1.57 1.76 1.97 2.04 1.85 1.62 1.46 1.47
1.81 1.56 1.48 1.56 1.51 1.52 1.50 1.44 1.30 1.24 1.19 1.06 1.16 1.15 1.23 1.24 1.18 1.21 1.31 1.23 1.15 1.09 1.12 1.13 0.92 0.76 0.78 0.84 0.83 0.74 0.62 0.68 0.75 0.97 1.29 1.49 1.66 2.03 2.16 1.94 1.71 1.63 1.63
2.10 1.84 1.68 1.56 1.64 1.82 1.78 1.74 1.75 1.72 1.68 1.58 1.56 1.41 1.52 1.58 1.61 1.62 1.74 1.73 1.73 1.70 1.68 1.57 1.40 1.26 1.16 1.14 1.10 1.06 0.92 0.89 1.02 1.23 1.42 1.43 1.52 1.86 2.13 2.12 1.91 1.77 1.70
2.57 2.34 2.07 1.99 1.95 1.98 2.06 2.06 1.85 1.94 1.95 2.06 2.02 1.79 1.84 1.86 1.92 2.09 2.09 2.19 2.13 2.27 2.21 2.01 1.75 1.65 1.53 1.30 1.24 1.26 1.21 1.18 1.23 1.34 1.53 1.60 1.57 1.76 2.09 2.27 2.17 2.04 2.02
2.80 2.65 2.40 2.24 2.20 2.09 2.24 2.41 2.27 2.11 2.14 2.16 2.23 2.12 2.14 2.20 2.30 2.39 2.43 2.48 2.35 2.38 2.42 2.29 2.00 1.84 1.73 1.55 1.37 1.29 1.27 1.41 1.42 1.36 1.57 1.69 1.61 1.61 1.89 2.25 2.44 2.55 2.61
2.95 2.67 2.67 2.49 2.60 2.65 2.80 2.80 2.83 2.74 2.70 2.64 2.57 2.59 2.52 2.55 2.64 2.66 2.82 2.85 2.74 2.67 2.62 2.52 2.37 2.10 1.99 1.90 1.79 1.63 1.51 1.51 1.63 1.69 1.71 1.82 1.88 1.80 1.91 2.14 2.39 2.58 2.73
2.85 2.84 2.90 2.75 2.78 2.93 2.90 2.84 2.98 3.18 3.12 3.02 2.95 2.99 2.90 2.92 3.01 3.16 3.10 2.96 2.86 2.78 2.74 2.85 2.69 2.41 2.31 2.33 2.21 1.92 1.64 1.66 1.77 1.84 1.83 1.91 2.05 1.98 2.00 1.98 2.10 2.30 2.53
2.80 2.72 2.84 2.98 2.82 2.98 3.06 3.05 3.10 3.28 3.38 3.41 3.40 3.28 3.24 3.31 3.32 3.46 3.40 3.19 2.98 2.89 2.91 2.76 2.78 2.69 2.70 2.62 2.22 1.96 1.71 1.66 1.74 1.77 1.82 1.89 2.07 2.15 2.17 2.02 2.10 2.33 2.50
2.84 2.84 2.88 3.11 3.03 3.23 3.34 3.15 3.16 3.21 3.34 3.48 3.61 3.64 3.73 3.78 3.75 3.76 3.65 3.48 3.32 3.18 3.12 2.99 2.94 2.91 2.76 2.61 2.18 1.96 1.77 1.63 1.64 1.70 1.74 1.82 1.88 1.92 2.00 2.04 2.10 2.05 2.22
3.04 3.07 2.99 3.02 3.18 3.26 3.39 3.43 3.62 3.61 3.61 3.87 4.12 4.18 4.30 4.33 4.17 4.13 4.04 3.89 3.68 3.44 3.25 3.08 2.94 2.80 2.61 2.47 2.32 2.11 1.80 1.57 1.59 1.62 1.58 1.65 1.73 1.72 1.76 1.83 2.00 1.96 1.89
3.18 3.24 3.29 3.38 3.38 3.48 3.82 4.27 4.63 4.90 4.98 4.97 5.11 5.11 4.97 4.81 4.68 4.53 4.44 4.22 3.93 3.67 3.41 3.17 2.93 2.70 2.50 2.37 2.35 2.41 2.14 1.85 1.50 1.31 1.33 1.37 1.41 1.44 1.52 1.62 1.66 1.69 1.69
3.02 3.22 3.27 3.53 3.85 4.22 4.70 5.17 5.53 5.81 5.91 5.73 5.53 5.42 5.19 4.95 4.76 4.42 4.17 4.09 3.84 3.48 3.26 3.09 2.89 2.69 2.46 2.32 2.23 2.37 2.30 2.06 1.71 1.50 1.32 1.23 1.25 1.34 1.39 1.50 1.52 1.46 1.42
2.73 2.97 3.20 3.47 4.06 4.87 5.52 5.97 6.34 6.45 6.38 6.22 5.98 5.62 5.15 4.77 4.42 4.12 3.82 3.53 3.28 3.01 2.79 2.64 2.56 2.51 2.43 2.28 2.21 2.06 1.86 1.72 1.75 1.63 1.45 1.36 1.32 1.33 1.29 1.26 1.29 1.30 1.29
2.48 2.72 3.04 3.40 4.06 4.75 5.37 5.95 6.34 6.45 6.35 6.09 5.65 5.16 4.65 4.17 3.76 3.40 3.09 2.79 2.55 2.34 2.16 2.00 1.98 2.11 2.19 2.17 2.16 2.13 1.98 1.81 1.72 1.65 1.57 1.53 1.50 1.45 1.33 1.24 1.19 1.16 1.15
2.08 2.37 2.76 3.17 3.66 4.19 4.56 5.07 5.43 5.60 5.52 5.16 4.66 4.05 3.61 3.31 3.03 2.71 2.40 2.14 1.91 1.70 1.58 1.53 1.52 1.57 1.72 1.83 1.89 1.92 1.91 1.95 1.93 1.85 1.76 1.70 1.66 1.58 1.45 1.34 1.25 1.22 1.19